CST,Max TemperatureF,Mean TemperatureF,Min TemperatureF,Max Dew PointF,MeanDew PointF,Min DewpointF,Max Humidity, Mean Humidity, Min Humidity, Max Sea Level PressureIn, Mean Sea Level PressureIn, Min Sea Level PressureIn, Max VisibilityMiles, Mean VisibilityMiles, Min VisibilityMiles, Max Wind SpeedMPH, Mean Wind SpeedMPH, Max Gust SpeedMPH,PrecipitationIn, CloudCover, Events, WindDirDegrees
2011-11-1,79,68,57,47,44,37,59,43,31,29.99,29.93,29.85,10,10,10,22,13,32,0.00,2,,195
2011-11-2,66,52,39,46,40,37,93,71,40,30.07,29.99,29.94,10,7,2,21,11,30,0.62,7,Rain,341
2011-11-3,55,46,37,39,32,24,97,66,31,30.29,30.16,30.00,10,9,6,18,13,32,0.14,3,Rain,345
2011-11-4,59,45,33,41,35,30,89,69,48,30.30,30.21,30.09,10,10,8,10,3,18,0.00,0,,117
2011-11-5,62,52,44,43,42,41,87,69,50,30.08,29.96,29.80,10,10,7,16,11,24,0.00,2,,165
2011-11-6,66,60,51,50,45,34,72,63,47,30.06,29.92,29.80,10,10,10,18,9,29,0.00,3,,224
2011-11-7,57,52,46,55,47,33,100,85,54,30.14,30.02,29.93,10,6,2,17,8,25,0.71,7,Rain-Thunderstorm,47
2011-11-8,48,44,39,48,46,44,100,97,92,29.98,29.89,29.85,10,4,1,16,9,26,0.78,8,Rain-Thunderstorm,30
2011-11-9,53,44,36,39,30,20,100,61,41,30.31,30.18,29.90,10,10,9,18,12,33,0.07,2,Rain-Snow,307
2011-11-10,50,41,32,29,22,17,72,50,27,30.35,30.25,30.10,10,10,10,13,5,21,0.00,0,,289
2011-11-11,64,50,35,36,32,24,73,51,31,30.06,29.87,29.79,10,10,10,12,5,18,0.00,0,,213
2011-11-12,64,54,44,43,34,30,66,46,31,29.78,29.62,29.48,10,10,10,24,10,34,0.00,0,,196
2011-11-13,70,59,48,46,35,25,63,43,19,29.60,29.51,29.35,10,10,10,22,11,29,0.00,0,,236
2011-11-14,64,54,39,37,32,25,79,47,23,29.77,29.66,29.51,10,10,10,13,5,22,0.00,0,,250
2011-11-15,66,52,37,34,31,25,86,51,27,30.01,29.80,29.70,10,10,10,15,3,23,0.00,0,,326
2011-11-16,45,40,33,25,17,9,70,42,23,30.36,30.23,30.04,10,10,10,13,7,18,0.00,3,,344
2011-11-17,48,38,28,27,23,17,89,58,29,30.41,30.29,30.08,10,10,9,16,8,30,0.00,0,,212
2011-11-18,59,49,39,35,29,23,51,43,36,30.07,29.88,29.76,10,10,10,24,16,41,0.00,0,,199
2011-11-19,72,52,33,52,38,25,75,61,34,30.14,29.78,29.58,10,10,8,29,15,41,0.00,6,,246
2011-11-20,37,34,30,30,26,23,81,72,65,30.28,30.23,30.15,10,10,10,16,10,,0.00,8,,40
2011-11-21,44,40,35,40,35,30,89,79,70,30.26,30.18,30.07,10,6,4,9,4,,0.00,8,,51
2011-11-22,46,44,42,42,40,37,93,87,79,30.21,30.05,29.99,10,5,2,9,6,,0.20,8,Rain,336
2011-11-23,59,49,39,42,39,36,93,75,49,30.28,30.21,30.17,10,8,3,10,4,,0.00,4,,200
2011-11-24,66,55,44,44,40,36,83,61,33,30.17,30.09,29.99,10,9,7,22,10,30,0.00,0,,195
2011-11-25,60,53,46,54,46,41,94,74,62,29.97,29.85,29.77,10,9,6,21,15,34,0.00,6,Rain,200
2011-11-26,55,47,39,53,41,25,96,80,55,30.17,29.91,29.75,10,7,1,20,9,30,0.62,8,Rain,326
2011-11-27,39,34,30,27,25,23,79,62,57,30.26,30.22,30.15,10,10,10,16,10,25,0.00,6,,344
2011-11-28,39,32,26,27,25,22,92,76,62,30.22,30.14,30.06,10,10,7,7,3,,0.00,2,,5
2011-11-29,46,39,30,28,22,17,79,52,30,30.26,30.20,30.08,10,10,10,15,9,21,0.00,0,,338
2011-11-30,52,39,26,21,16,10,75,44,20,30.23,30.12,30.02,10,10,10,13,4,,0.00,0,,187